Le Mars, IA

2:04 PM CST on November 15, 2019 (GMT -0600)
Le Mars Municipal

Weather History for KLRJ - September, 2019

Change the Weather History Date:

Saturday, September 7, 2019

  Actual Average Record
Temperature  
Mean Temperature 64 °F -  
Max Temperature 68 °F 83 °F 99 °F (1976)
Min Temperature 60 °F 55 °F 35 °F (1986)
Degree Days  
Heating Degree Days 1    
Growing Degree Days 14 (Base 50)    
Moisture  
Dew Point 63 °F    
Average Humidity 94    
Maximum Humidity 100    
Minimum Humidity 83    
Precipitation  
Precipitation 0.17 in - - ()
Sea Level Pressure  
Sea Level Pressure 30.05 in    
Wind  
Wind Speed 3 mph (East)    
Max Wind Speed 12 mph    
Max Gust Speed 17 mph    
Visibility 10 miles    
Events Rain    
Averages and records for this station are not official NWS values.
T = Trace of Precipitation, MM = Missing Value Source: NWS Daily Summary

Daily Weather History Graph

Daily Weather History Graph

Search for Another Location

Airport or City:

Astronomy

Sep. 07, 2019 Rise Set
Actual Time 6:55 AM CDT 7:49 PM CDT
Civil Twilight 6:26 AM CDT 8:17 PM CDT
Nautical Twilight 5:52 AM CDT 8:51 PM CDT
Astronomical Twilight 5:16 AM CDT 9:27 PM CDT
Moon 4:12 PM CDT (9/7) 12:42 AM CDT (9/7)
Length of Visible Light 13h 50m
Length of Day
12h 53m
Waxing Gibbous, 66% of the Moon is Illuminated
Sep 7
Waxing Gibbous
Sep 13
Full
Sep 21
Last Quarter
Sep 28
New
Oct 5
First Quarter

Hourly Weather History & Observations

Time (CDT) Temp. Dew Point Humidity Pressure Visibility Wind Dir Wind Speed Gust Speed Precip Events Conditions
12:15 AM 60.8 °F 60.8 °F 100% 30.13 in 10.0 mi Calm Calm - N/A   Clear
12:35 AM 60.8 °F 60.8 °F 100% 30.14 in 10.0 mi Calm Calm - N/A   Clear
12:55 AM 60.8 °F 60.8 °F 100% 30.14 in 10.0 mi Calm Calm - N/A   Clear
1:15 AM 60.8 °F 60.8 °F 100% 30.14 in 10.0 mi Calm Calm - N/A   Clear
1:35 AM 60.8 °F 60.8 °F 100% 30.14 in 10.0 mi Calm Calm - N/A   Clear
1:55 AM 62.6 °F 62.6 °F 100% 30.12 in 10.0 mi Calm Calm - N/A   Partly Cloudy
2:15 AM - - N/A% 30.11 in - Calm Calm - N/A   Unknown
2:35 AM 62.6 °F 62.6 °F 100% 30.10 in 10.0 mi Calm Calm - N/A   Unknown
2:55 AM 62.6 °F 62.6 °F 100% 30.11 in 10.0 mi Calm Calm - N/A   Partly Cloudy
3:15 AM 62.6 °F 62.6 °F 100% 30.11 in 10.0 mi Calm Calm - N/A   Clear
3:35 AM 62.6 °F 62.6 °F 100% 30.11 in 10.0 mi Calm Calm - N/A   Partly Cloudy
3:55 AM 60.8 °F 60.8 °F 100% 30.11 in 10.0 mi Calm Calm - N/A   Partly Cloudy
4:15 AM 62.6 °F 60.8 °F 94% 30.10 in 10.0 mi Calm Calm - N/A   Mostly Cloudy
4:35 AM 62.6 °F 62.6 °F 100% 30.11 in 10.0 mi Calm Calm - N/A   Mostly Cloudy
4:55 AM 62.6 °F 62.6 °F 100% 30.11 in 10.0 mi Calm Calm - N/A   Mostly Cloudy
5:15 AM 62.6 °F 62.6 °F 100% 30.12 in 10.0 mi North 6.9 mph 12.7 mph N/A   Partly Cloudy
5:35 AM 62.6 °F 62.6 °F 100% 30.12 in 10.0 mi NE 4.6 mph - N/A   Clear
5:55 AM 62.6 °F 62.6 °F 100% 30.10 in 10.0 mi NE 4.6 mph - N/A   Clear
6:15 AM 62.6 °F 62.6 °F 100% 30.10 in 10.0 mi Calm Calm - N/A   Scattered Clouds
6:35 AM 60.8 °F 60.8 °F 100% 30.08 in 10.0 mi SE 3.5 mph - N/A   Scattered Clouds
6:55 AM 62.6 °F 62.6 °F 100% 30.06 in 10.0 mi East 5.8 mph - N/A   Clear
7:15 AM 62.6 °F 62.6 °F 100% 30.08 in 10.0 mi NW 3.5 mph - N/A   Partly Cloudy
7:35 AM 62.6 °F 62.6 °F 100% 30.06 in 10.0 mi East 3.5 mph - N/A   Clear
7:55 AM 64.4 °F 62.6 °F 94% 30.08 in 10.0 mi Calm Calm - N/A   Clear
8:15 AM 64.4 °F 62.6 °F 94% 30.11 in 10.0 mi West 4.6 mph - N/A   Clear
8:35 AM 64.4 °F 62.6 °F 94% 30.11 in 10.0 mi Calm Calm - N/A   Clear
8:55 AM 64.4 °F 62.6 °F 94% 30.10 in 10.0 mi Calm Calm - N/A   Clear
9:15 AM 66.2 °F 62.6 °F 88% 30.09 in 10.0 mi Calm Calm - N/A   Clear
9:35 AM 68.0 °F 62.6 °F 83% 30.08 in 10.0 mi East 4.6 mph - N/A   Partly Cloudy
9:55 AM 68.0 °F 62.6 °F 83% 30.08 in 10.0 mi SE 4.6 mph - N/A   Mostly Cloudy
10:15 AM 66.2 °F 64.4 °F 94% 30.08 in 5.0 mi SE 4.6 mph - N/A   Light Drizzle
10:55 AM 68.0 °F 64.4 °F 88% 30.08 in 10.0 mi ESE 4.6 mph - 0.01 in   Scattered Clouds
11:15 AM 68.0 °F 64.4 °F 88% 30.09 in 10.0 mi SE 3.5 mph - N/A   Mostly Cloudy
11:35 AM 68.0 °F 64.4 °F 88% 30.09 in 10.0 mi SE 4.6 mph - N/A   Mostly Cloudy
11:55 AM 68.0 °F 62.6 °F 83% 30.08 in 9.0 mi SE 5.8 mph - 0.01 in   Mostly Cloudy
12:15 PM 66.2 °F 64.4 °F 94% 30.05 in 4.0 mi ESE 5.8 mph - N/A Rain Light Rain
12:35 PM 66.2 °F 64.4 °F 94% 30.07 in 10.0 mi Calm Calm - N/A   Partly Cloudy
12:55 PM 66.2 °F 66.2 °F 100% 30.04 in 4.0 mi ESE 9.2 mph - 0.04 in   Mostly Cloudy
1:15 PM 66.2 °F 66.2 °F 100% 30.03 in 5.0 mi SSE 6.9 mph - N/A Rain Light Rain
1:35 PM 64.4 °F 64.4 °F 100% 30.03 in 7.0 mi SE 6.9 mph - N/A Rain Light Rain
1:55 PM 64.4 °F 64.4 °F 100% 30.04 in 8.0 mi SSE 5.8 mph - 0.05 in   Overcast
2:15 PM 66.2 °F 64.4 °F 94% 30.03 in 4.0 mi ESE 4.6 mph - N/A   Mostly Cloudy
2:35 PM 66.2 °F 62.6 °F 88% 30.02 in 10.0 mi East 8.1 mph - N/A   Mostly Cloudy
2:55 PM 66.2 °F 62.6 °F 88% 30.02 in 10.0 mi East 8.1 mph - 0.06 in   Overcast
3:15 PM 66.2 °F 64.4 °F 94% 30.01 in 10.0 mi East 6.9 mph - N/A   Overcast
3:35 PM 66.2 °F 62.6 °F 88% 30.02 in 10.0 mi East 8.1 mph - N/A   Overcast
3:55 PM 66.2 °F 62.6 °F 88% 30.01 in 10.0 mi East 8.1 mph - N/A   Overcast
4:15 PM 66.2 °F 62.6 °F 88% 29.99 in 10.0 mi East 9.2 mph - N/A   Overcast
4:35 PM 66.2 °F 62.6 °F 88% 29.98 in 10.0 mi East 9.2 mph 15.0 mph N/A   Overcast
4:55 PM 66.2 °F 60.8 °F 83% 30.00 in 10.0 mi ENE 6.9 mph 12.7 mph N/A   Overcast
5:15 PM 66.2 °F 62.6 °F 88% 29.99 in 10.0 mi ENE 8.1 mph - N/A   Overcast
5:35 PM 66.2 °F 60.8 °F 83% 29.99 in 10.0 mi East 9.2 mph 15.0 mph N/A   Overcast
5:55 PM 66.2 °F 60.8 °F 83% 29.98 in 10.0 mi East 9.2 mph - N/A   Overcast
6:15 PM 66.2 °F 62.6 °F 88% 29.98 in 10.0 mi East 9.2 mph - N/A   Overcast
6:35 PM 66.2 °F 64.4 °F 94% 29.98 in 10.0 mi East 10.4 mph - N/A   Overcast
6:55 PM 66.2 °F 64.4 °F 94% 29.98 in 10.0 mi East 11.5 mph - N/A   Overcast
7:15 PM 66.2 °F 62.6 °F 88% 29.98 in 10.0 mi East 9.2 mph 17.3 mph N/A   Overcast
7:35 PM 66.2 °F 62.6 °F 88% 29.99 in 10.0 mi East 6.9 mph - N/A   Overcast
7:55 PM 64.4 °F 60.8 °F 88% 29.99 in 10.0 mi East 11.5 mph - N/A   Overcast
8:15 PM 64.4 °F 62.6 °F 94% 29.99 in 10.0 mi East 11.5 mph - N/A   Overcast
8:35 PM 64.4 °F 62.6 °F 94% 29.99 in 10.0 mi East 10.4 mph - N/A   Overcast
8:55 PM 64.4 °F 62.6 °F 94% 29.99 in 10.0 mi East 10.4 mph - N/A   Overcast
9:15 PM 64.4 °F 62.6 °F 94% 30.00 in 10.0 mi ENE 10.4 mph - N/A   Overcast
9:35 PM 64.4 °F 62.6 °F 94% 29.99 in 10.0 mi East 9.2 mph 16.1 mph N/A   Overcast
10:15 PM 64.4 °F 60.8 °F 88% 29.97 in 10.0 mi East 8.1 mph 15.0 mph N/A   Overcast
10:35 PM 64.4 °F 60.8 °F 88% 29.99 in 10.0 mi East 9.2 mph - N/A   Overcast
10:55 PM 64.4 °F 60.8 °F 88% 30.00 in 10.0 mi East 9.2 mph 15.0 mph N/A   Overcast
11:15 PM 62.6 °F 62.6 °F 100% 29.98 in 10.0 mi East 10.4 mph - N/A   Overcast
11:35 PM 62.6 °F 62.6 °F 100% 29.98 in 10.0 mi ENE 10.4 mph - N/A   Overcast
11:55 PM 62.6 °F 62.6 °F 100% 29.97 in 10.0 mi ENE 9.2 mph - N/A   Overcast